Theta_e
326 316 328 316 302 300 298 302 306 306 307 311 314 317 317 318 313 305 331 334 334 337 343 343 346 348 348 348 347 345 344 341 340 339 338 339 339 341 341 340 342 340 337 336 335 336 333 333 334
323 319 318 309 299 297 297 303 304 308 312 314 317 317 317 315 324 324 326 332 334 340 342 342 344 347 348 347 346 345 344 341 338 337 337 337 337 338 339 338 338 338 339 339 340 336 333 331 333
314 317 310 304 300 299 298 304 304 309 313 312 312 319 319 319 323 326 329 330 339 340 342 343 344 347 348 346 346 345 343 341 340 337 336 337 336 336 338 337 338 337 337 337 338 335 333 331 330
306 312 307 300 297 303 304 305 310 310 311 314 316 315 321 328 326 327 329 334 338 340 342 342 345 348 347 345 345 344 343 341 339 338 336 335 336 335 336 336 338 336 335 334 335 333 332 330 329
307 307 300 295 296 302 303 307 312 309 310 310 315 312 317 327 327 328 330 334 336 338 340 342 344 345 346 346 345 344 343 340 339 338 336 337 335 334 334 337 337 334 332 333 333 331 330 329 328
300 304 296 294 298 302 304 306 312 310 310 312 316 316 318 326 323 328 330 331 337 338 341 342 337 340 343 344 344 344 342 340 339 338 337 336 336 334 334 334 334 333 331 331 332 330 329 327 326
298 297 295 295 298 300 304 306 307 308 310 309 320 314 317 323 319 327 329 333 337 339 339 339 340 338 336 339 340 340 340 339 340 338 337 336 335 336 336 332 333 331 332 332 331 329 328 327 326
302 300 295 295 296 298 306 306 309 308 309 314 321 314 316 324 319 325 333 334 335 337 338 336 336 337 337 337 333 334 336 336 335 334 332 330 330 332 333 330 333 332 331 330 329 328 328 328 327
305 296 294 296 297 300 306 305 309 309 309 313 319 320 323 327 319 327 331 332 334 336 337 336 335 334 334 334 331 329 330 329 330 329 326 324 324 325 326 326 331 334 334 332 330 329 329 330 328
298 294 297 302 298 298 304 306 305 305 305 313 319 325 328 322 318 323 327 328 330 331 334 335 334 334 334 337 331 330 331 325 326 327 323 322 322 322 324 322 326 330 331 333 333 332 330 326 320
298 296 301 300 302 300 301 301 305 303 301 310 317 322 324 321 317 320 325 328 329 331 333 334 334 334 334 333 330 328 327 325 325 324 323 323 323 320 320 320 321 320 320 322 325 325 324 321 319
299 302 302 303 306 301 299 302 302 304 305 309 323 326 325 322 319 318 320 325 326 328 331 333 333 333 333 331 330 328 327 325 324 324 323 322 321 320 320 319 319 319 319 318 318 319 321 320 320
303 302 304 308 307 303 304 298 300 302 307 311 326 326 325 324 323 322 320 326 326 327 329 332 332 331 331 329 329 328 328 326 325 324 325 323 321 319 319 319 319 318 318 318 317 318 319 319 320
307 306 305 306 306 306 301 300 300 302 307 317 324 323 324 325 326 324 322 322 325 327 328 330 331 331 330 328 326 327 328 327 326 325 325 324 322 321 319 319 319 319 319 319 318 318 318 318 318
304 300 302 304 304 304 302 299 297 301 304 316 320 320 322 323 325 326 326 324 326 327 328 330 330 331 330 328 327 327 328 328 327 326 326 325 324 322 322 320 319 319 320 319 319 319 318 318 319
298 297 292 299 304 305 302 296 300 301 300 301 310 317 320 322 324 327 326 327 326 327 327 330 332 331 331 330 329 329 329 328 328 327 327 326 326 325 322 322 321 321 320 320 319 318 318 318 318
296 286 290 295 304 304 302 297 302 304 300 298 298 310 319 320 322 324 327 328 329 328 328 329 329 330 330 332 331 329 329 328 329 328 328 327 327 327 325 324 323 323 321 321 320 319 318 317 318
287 290 290 292 299 302 299 298 300 302 301 300 300 300 311 317 322 326 327 329 330 329 329 329 330 329 329 331 332 332 331 331 331 329 327 328 328 327 327 325 324 323 322 321 320 319 319 319 318
290 290 290 294 299 299 299 300 301 305 303 302 303 299 297 303 319 325 327 329 329 328 329 328 328 329 330 328 329 329 328 329 330 331 329 328 328 328 327 326 324 324 323 323 322 321 322 321 320
287 285 286 292 297 297 295 297 302 305 305 306 306 301 300 300 301 320 324 327 327 328 329 329 329 329 329 330 328 328 328 329 330 331 331 329 328 328 328 327 326 325 324 323 323 322 321 321 319
287 285 285 286 291 293 294 293 296 301 302 307 310 306 302 302 300 311 321 323 324 326 328 328 330 329 330 330 329 328 328 328 329 330 330 329 329 329 328 328 327 326 326 325 324 323 321 319 319
283 290 288 287 287 285 293 284 292 299 300 302 306 308 305 302 299 303 317 314 316 318 324 327 330 330 330 330 329 329 329 327 329 329 328 329 329 329 329 329 328 327 327 326 326 325 323 321 319
286 290 288 288 287 285 284 285 288 296 297 300 303 305 304 297 296 295 297 303 303 303 307 311 323 322 326 329 331 329 329 331 330 327 327 328 329 330 330 329 328 328 327 327 326 325 323 323 322
293 289 287 288 286 280 285 286 282 288 295 300 304 307 299 296 294 295 298 300 302 304 307 309 306 307 308 311 313 320 330 329 325 325 326 328 328 329 330 330 329 329 328 327 327 325 324 324 323
288 286 277 277 278 277 285 283 287 290 292 291 298 303 304 297 296 298 298 299 301 301 301 305 305 303 305 306 308 309 311 316 327 328 328 327 327 326 329 329 329 329 329 329 328 326 324 323 322
284 286 277 271 274 277 283 280 285 295 290 292 293 295 296 296 297 299 299 300 300 300 300 301 302 301 303 302 302 304 306 314 317 318 320 324 326 326 328 326 327 329 329 328 329 328 327 325 324
287 282 288 278 275 277 280 283 287 289 289 291 293 295 295 296 297 297 299 300 301 300 300 300 300 299 299 300 300 300 300 301 302 305 310 311 314 316 318 320 323 325 325 325 325 327 326 325 324
287 291 281 280 267 268 277 277 280 283 286 290 292 293 294 296 296 297 297 298 299 299 299 299 299 298 298 299 298 298 298 298 299 300 300 301 303 305 307 308 311 313 317 320 320 320 320 321 322
283 283 285 282 277 273 272 276 283 284 289 289 291 293 293 294 294 295 295 295 296 296 296 296 296 295 295 296 297 297 297 298 298 297 297 297 299 300 300 302 303 305 307 310 312 314 314 313 313
287 285 285 279 276 276 278 275 286 286 289 291 291 292 291 292 292 291 292 292 292 293 293 292 292 293 293 294 294 294 294 295 295 295 294 294 295 297 297 298 298 299 300 301 302 303 305 307 307
Wind_Speed
8 6 1 4 5 5 3 6 3 7 1 2 1 11 8 4 4 5 5 8 16 14 12 13 15 17 17 17 17 16 15 15 14 13 13 13 13 13 15 14 13 14 14 14 14 13 12 12 12
5 1 4 2 5 1 5 4 6 5 5 7 9 4 6 2 3 7 5 11 17 13 12 12 12 16 17 17 17 16 15 16 15 13 13 13 13 13 11 15 12 13 13 14 16 12 11 10 10
1 0 4 4 2 3 4 3 7 3 5 3 5 6 4 4 5 9 10 14 15 12 11 11 14 15 16 16 16 15 16 15 13 14 13 14 13 13 12 13 13 13 11 12 14 11 9 9 9
3 5 4 5 4 5 6 7 2 7 2 5 4 7 3 5 8 8 14 17 15 11 10 13 16 16 16 15 15 15 16 16 13 14 12 12 13 13 12 12 13 12 10 10 10 9 8 7 8
4 3 2 2 4 6 4 4 5 1 3 3 3 3 3 5 12 19 15 14 15 11 9 11 15 16 16 15 14 13 16 17 16 12 12 12 12 12 12 10 15 10 9 9 8 7 7 6 5
4 3 1 3 6 5 7 9 6 5 5 5 7 6 4 6 15 13 13 12 12 13 10 9 11 12 14 15 14 14 15 15 14 16 14 10 13 12 11 10 9 11 8 8 6 5 4 3 3
5 4 4 3 4 5 5 2 3 5 7 5 11 5 1 3 9 12 11 10 11 11 9 8 8 10 11 12 12 11 12 12 12 12 10 14 11 11 10 11 9 6 8 6 5 4 2 1 1
4 4 2 4 4 3 6 7 4 5 6 6 5 8 6 6 11 11 11 11 10 9 8 8 6 6 6 7 9 9 9 10 11 10 11 7 9 12 11 10 9 10 7 7 6 5 4 3 3
3 3 4 4 1 1 4 7 7 3 6 4 4 6 6 17 14 12 12 9 10 9 10 8 8 6 6 5 6 7 6 8 8 8 10 8 3 5 7 6 10 11 10 9 8 6 5 5 5
4 5 9 3 2 0 4 4 5 2 3 5 4 6 18 17 16 16 15 15 15 15 13 10 9 8 7 5 5 5 4 3 5 5 5 4 5 4 5 6 8 9 9 9 9 8 7 6 3
5 6 6 4 4 2 5 5 5 1 1 6 9 11 16 13 11 14 12 14 12 12 9 10 10 9 9 6 4 2 2 3 3 6 6 5 3 3 2 2 2 3 6 3 5 4 3 4 4
4 6 5 6 2 2 1 5 7 1 4 6 12 20 16 15 14 12 12 14 13 14 13 13 12 11 9 5 5 5 4 3 3 4 6 4 3 3 3 3 4 4 3 4 4 3 4 5 5
3 3 2 3 4 1 2 1 3 7 8 2 10 13 17 16 14 7 8 10 12 13 13 14 13 12 10 9 6 6 5 5 5 4 5 4 4 4 4 4 4 4 3 4 4 4 4 5 5
4 6 5 2 0 1 2 3 0 3 6 6 12 12 12 16 15 7 9 12 14 14 14 14 14 13 12 9 9 8 6 7 6 5 6 7 5 4 5 4 5 4 4 4 4 5 5 5 4
2 4 5 4 5 4 3 7 7 4 3 6 6 5 8 9 9 16 13 13 14 12 13 15 15 13 13 11 10 8 7 7 6 6 8 9 7 7 7 5 5 5 5 6 4 4 3 4 4
5 4 7 5 10 6 7 15 6 3 1 3 6 8 8 11 14 14 8 10 10 11 13 13 12 15 14 11 9 7 7 6 7 6 7 10 10 9 6 5 5 5 4 4 4 4 4 4 4
6 5 9 4 12 7 15 8 9 3 7 4 5 7 10 9 9 11 13 12 10 12 13 13 11 13 14 12 9 8 8 7 7 7 7 9 9 8 6 6 5 5 4 4 4 4 4 4 4
6 9 5 9 6 9 7 9 5 8 6 4 6 6 7 9 18 16 15 13 11 10 11 12 11 11 8 7 8 7 7 7 7 7 5 7 7 7 7 4 5 5 4 4 3 5 4 4 4
1 5 15 8 7 8 17 13 12 9 6 6 6 3 3 7 14 10 13 13 11 10 11 12 12 10 9 3 6 6 8 5 4 6 9 8 8 9 9 7 6 6 7 7 6 4 6 4 2
12 5 5 4 4 6 5 15 13 14 13 11 13 8 8 6 7 11 13 13 14 15 14 12 13 9 8 7 1 3 4 4 5 4 6 8 8 9 9 10 8 8 6 6 7 7 4 3 4
17 14 5 2 0 2 3 6 8 8 5 14 19 11 6 8 8 5 12 14 8 12 15 13 12 11 11 8 4 1 0 2 5 6 6 6 8 9 10 10 9 8 8 8 9 8 8 7 4
16 12 8 9 2 5 5 7 9 17 13 14 18 16 13 8 1 4 7 7 6 1 3 6 10 11 10 10 8 11 10 10 8 7 4 5 8 9 10 11 10 10 8 10 9 7 9 7 8
8 7 13 8 5 2 4 2 5 8 18 19 16 15 7 8 7 7 7 8 9 8 7 5 5 4 2 6 9 8 12 9 6 4 6 7 6 9 10 11 11 12 9 11 11 10 10 8 9
6 5 6 4 4 8 14 9 5 7 12 17 15 19 11 13 11 9 7 7 9 7 6 5 7 5 6 4 2 2 8 8 4 5 6 6 4 5 8 9 10 11 11 12 11 11 12 12 10
17 7 5 9 8 15 16 7 12 3 3 6 14 18 18 14 14 13 8 8 7 8 7 4 5 7 6 6 6 5 4 5 4 5 5 5 5 5 8 9 10 10 11 12 11 10 11 12 11
18 8 4 8 13 12 2 11 9 16 5 3 6 8 9 9 9 10 8 8 11 9 7 7 7 7 6 6 6 5 6 3 3 5 4 3 3 3 4 4 6 9 11 11 10 9 9 10 11
5 14 13 3 3 5 6 5 6 5 7 5 8 12 10 9 8 9 7 6 5 13 9 8 7 7 7 7 5 6 5 5 4 4 3 3 4 5 6 5 5 5 4 6 9 9 11 10 10
10 7 9 5 6 5 6 4 6 8 8 7 8 11 10 11 11 10 9 9 8 9 10 9 7 6 6 6 6 5 6 5 5 5 6 6 4 5 6 6 6 5 5 4 4 5 6 7 7
6 12 7 6 4 6 5 6 1 4 14 14 10 10 11 11 10 9 10 8 9 10 9 7 8 7 7 7 6 6 6 5 5 5 5 6 5 6 7 6 7 6 7 6 5 5 5 5 5
4 17 8 6 5 1 2 3 8 6 9 14 14 11 8 10 10 9 10 9 8 9 8 7 7 7 7 5 5 4 6 6 6 6 6 6 7 6 5 5 5 5 6 6 6 6 6 6 6
Wind_Direction
327 315 113 38 62 65 264 264 241 314 7 267 33 109 120 65 142 203 121 125 128 139 145 147 150 144 142 139 134 130 125 117 114 115 117 120 116 112 110 102 101 105 110 106 102 92 89 94 90
320 35 37 79 91 78 269 278 250 246 214 142 92 84 56 102 115 121 98 144 134 140 143 144 147 143 140 141 141 140 132 124 121 120 121 123 122 121 124 108 113 108 107 116 101 96 87 78 77
341 87 82 95 137 215 245 235 267 180 248 130 91 58 105 152 89 147 134 140 130 139 144 145 141 140 142 147 148 143 133 127 122 128 133 134 124 130 121 118 112 112 105 107 98 99 90 74 61
24 15 16 93 215 265 246 293 328 158 82 56 122 65 43 238 141 142 139 138 130 138 143 148 145 146 147 152 151 149 135 128 129 126 135 123 135 133 132 132 116 118 114 110 102 100 94 76 58
36 58 74 127 250 261 317 298 193 222 129 97 101 128 62 7 116 130 140 143 136 137 141 148 145 148 150 152 156 150 142 137 136 128 138 132 138 142 142 126 127 123 124 112 111 106 98 83 57
36 96 54 191 240 307 290 253 175 179 158 145 76 97 164 123 131 142 140 145 136 141 145 146 143 144 151 157 152 146 144 143 147 148 141 149 146 147 145 150 140 134 147 127 127 121 111 95 58
123 96 225 217 254 314 272 192 182 191 159 164 144 89 3 135 141 139 133 129 131 140 139 137 145 149 146 148 151 151 148 150 151 140 154 152 159 151 143 162 154 143 136 151 153 153 153 145 27
117 105 240 249 220 274 308 314 169 181 226 107 129 154 180 201 144 119 123 127 131 141 142 138 126 132 132 148 149 156 163 162 153 161 144 158 195 161 156 155 161 162 171 176 180 189 204 236 265
122 91 215 248 198 250 322 4 347 305 104 60 359 149 188 144 132 124 131 137 141 151 156 145 139 137 138 145 165 166 166 159 149 157 157 163 150 145 156 166 177 169 180 187 192 206 224 244 267
144 165 207 188 121 207 315 0 342 5 65 34 26 21 132 147 152 147 158 162 164 166 166 158 152 151 146 156 150 157 166 187 163 159 171 162 176 185 175 185 194 192 190 191 199 210 227 246 263
195 199 214 146 151 172 333 360 337 5 243 190 172 149 151 157 167 160 164 166 169 162 162 167 162 162 160 158 156 161 158 164 167 174 178 178 180 210 209 195 225 206 199 215 223 235 235 239 239
203 241 219 161 95 87 338 293 339 11 275 294 181 162 157 167 174 174 166 166 163 168 168 170 172 169 174 154 168 171 168 176 177 190 188 172 179 209 224 215 211 205 214 223 233 238 249 256 254
190 239 246 144 106 75 284 352 236 277 318 311 137 165 169 175 172 167 163 170 167 174 174 175 175 176 175 169 171 175 185 185 193 191 196 186 184 199 203 215 215 220 215 222 233 238 250 252 255
190 216 259 115 139 328 295 276 184 264 1 99 155 178 182 181 180 148 162 178 181 178 180 179 180 179 174 177 174 183 186 193 191 193 201 197 189 196 191 200 212 225 215 227 227 227 236 241 244
159 318 296 199 197 243 219 276 211 252 21 141 180 222 183 194 187 192 184 177 186 186 180 184 180 178 178 183 180 181 189 185 194 198 198 197 195 198 193 203 206 216 213 226 237 248 255 260 255
137 120 233 191 175 222 163 244 227 214 123 285 204 194 202 212 205 200 194 185 177 182 183 183 184 180 179 182 183 189 185 189 198 202 198 202 205 202 197 200 218 212 206 202 206 216 240 249 252
198 180 213 304 191 167 194 243 207 209 93 44 3 219 210 210 228 221 200 197 190 186 184 181 179 181 181 183 183 187 186 193 204 201 203 205 205 201 200 206 217 208 209 207 205 220 202 221 245
184 200 199 211 199 209 201 238 210 165 145 192 306 345 223 219 219 209 208 203 194 188 188 183 182 174 166 178 185 193 191 199 200 204 197 197 206 197 201 213 216 202 215 233 228 218 213 209 231
338 190 213 206 217 185 217 215 224 232 223 210 256 264 274 246 248 223 210 200 191 182 183 186 185 181 169 155 184 199 211 203 193 195 202 197 200 204 203 208 207 201 207 212 209 213 220 243 200
254 260 235 248 230 205 204 230 223 224 234 228 232 221 227 270 283 195 197 200 197 192 190 186 190 180 184 190 180 188 193 211 214 197 195 204 204 206 211 214 217 213 216 217 216 205 204 233 179
231 227 242 243 25 245 100 246 217 245 229 224 237 223 189 226 277 233 191 193 188 189 193 190 189 188 195 179 146 126 265 204 207 215 218 202 206 213 216 217 215 213 217 228 227 220 214 240 205
221 219 229 249 154 227 169 264 217 208 214 222 225 228 221 207 260 40 125 99 106 43 196 190 188 185 196 183 187 210 221 228 228 228 212 197 203 214 217 222 215 214 213 229 231 223 223 215 234
221 172 207 219 212 34 249 244 233 200 220 216 218 227 219 129 119 81 52 97 79 52 43 26 103 82 176 191 207 204 221 234 233 206 207 215 220 217 215 220 217 223 214 222 222 219 212 212 231
289 251 182 137 148 239 213 210 233 199 209 220 218 219 170 144 130 107 105 76 72 67 63 45 76 63 45 58 55 297 242 241 231 222 222 218 239 240 240 223 221 228 234 228 221 229 229 221 220
225 203 174 189 195 229 166 200 229 209 252 235 214 212 194 160 146 131 122 107 81 62 67 99 95 66 45 50 44 20 348 312 264 257 248 246 231 222 227 221 226 228 230 236 234 222 229 230 228
200 221 199 178 198 210 133 222 223 235 91 15 77 115 105 109 116 114 135 119 113 91 66 41 56 73 50 43 39 36 23 16 20 14 355 345 312 304 306 277 255 245 243 237 232 236 236 236 239
189 214 227 353 15 142 194 277 297 125 127 69 74 92 92 90 92 101 94 87 113 91 76 56 38 51 53 50 51 39 31 31 11 5 17 8 359 345 339 347 350 327 305 278 265 248 240 226 239
218 147 199 214 155 194 205 205 210 168 166 132 106 104 97 96 90 85 80 72 63 70 74 77 58 52 53 41 36 37 32 32 30 33 26 12 2 2 350 1 1 338 333 341 313 293 291 272 251
188 229 213 174 185 162 131 239 112 253 169 146 132 118 115 106 95 89 83 74 68 63 60 58 56 45 37 36 34 32 16 13 32 36 21 10 2 7 14 6 349 347 346 351 334 320 296 288 286
206 229 186 197 199 196 137 246 327 206 139 133 123 112 98 94 92 84 76 70 67 74 70 54 48 40 36 34 40 34 36 11 18 23 12 1 1 4 0 354 349 352 356 344 345 341 335 316 305